Flag for U.S.A. Weather past 2 weeks in Metairie, Louisiana, U.S.A.

Now
80 °F

Passing clouds.


Feels Like: 82 °F
Forecast: 74 / 87 °F
Wind: 6 mph from Southeast

Location: New Orleans International Airport

Current Time: Aug 28, 2015 at 10:54:33 PM

Latest Report: Aug 28, 2015 at 9:53 PM


Visibility: 10 mi

Pressure: 30.02 "Hg

Humidity: 58%

Dew point: 64 °F

Location of MetairieLocation

Historic Weather in Metairie — Graph

°F

Metairie temperature yesterday

Maximum temperature yesterday: 86 °F (at 3:53 PM)
Minimum temperature yesterday: 73 °F (at 5:53 AM)
Average temperature yesterday: 80 °F

Past Weeks' High & Low Weather Summary

 TemperatureHumidityPressure
High95 °F (Aug 14, 1:53 PM)91% (Aug 22, 4:53 AM)30.09 "Hg (Aug 22, 4:53 AM)
Low70 °F (Aug 28, 3:53 AM)30% (Aug 14, 3:53 PM)29.89 "Hg (Aug 19, 4:53 PM)
Average83 °F67%29.99 "Hg
* Reported Aug 13 8:53 PM — Aug 28 8:53 PM, Metairie, Weather by CustomWeather, © 2015

Note: Actual official high and low records may vary slightly from our data, if they occured in-between our weather recording intervals... More about our weather records

Advertising

Metairie weather history for previous 24 hours

 ConditionsComfort  
Time TempWeatherWind HumidityBarometerVisibility
8:53 PM
Fri, Aug 28
82 °FPassing clouds.5 mph49%30.00 "Hg10 mi
7:53 PM83 °FScattered clouds.6 mph48%29.98 "Hg10 mi
6:53 PM86 °FPassing clouds.10 mph45%29.96 "Hg10 mi
5:53 PM88 °FPassing clouds.9 mph43%29.96 "Hg10 mi
4:53 PM90 °FScattered clouds.9 mph45%29.95 "Hg10 mi
3:53 PM90 °FPassing clouds.9 mph43%29.95 "Hg10 mi
2:53 PM90 °FPassing clouds.8 mph41%29.97 "Hg10 mi
1:53 PM89 °FPassing clouds.10 mph43%29.99 "Hg10 mi
12:53 PM87 °FPassing clouds.10 mph50%30.01 "Hg10 mi
11:53 AM86 °FPassing clouds.10 mph51%30.03 "Hg10 mi
10:53 AM85 °FPassing clouds.8 mph55%30.03 "Hg10 mi
9:53 AM83 °FPassing clouds.8 mph57%30.03 "Hg10 mi
8:53 AM81 °FPassing clouds.10 mph60%30.01 "Hg10 mi
7:53 AM78 °FPassing clouds.9 mph66%30.00 "Hg10 mi
6:53 AM73 °FPassing clouds.7 mph74%29.98 "Hg10 mi
5:53 AM73 °FClear.7 mph69%29.98 "Hg10 mi
4:53 AM72 °FClear.No wind78%29.97 "Hg10 mi
3:53 AM70 °FClear.No wind76%29.97 "Hg10 mi
2:53 AM73 °FClear.No wind66%29.96 "Hg10 mi
1:53 AM73 °FClear.No wind69%29.97 "Hg10 mi
12:53 AM73 °FClear.No wind71%29.98 "Hg10 mi
11:53 PM
Thu, Aug 27
73 °FClear.3 mph74%29.99 "Hg10 mi
10:53 PM77 °FClear.3 mph60%30.00 "Hg10 mi
Weather by CustomWeather, © 2015

See weather overviewHow to use our weather pages